Location: Koslow
(50.3020°N, 18.5663°E)
Time: 14:17:36
(UTC+00:00)

X-37B - Pass Details

Date: 05 August 2021
Orbit: 381 x 393 km, 45.0° (Epoch: 29 August)

Event Time Altitude Azimuth Distance (km) Brightness Sun altitude
Exits shadow 01:20:29 15° 152° (SSE) 1,124 2.7 -15.2°
Drops below altitude 10° 01:22:16 10° 118° (ESE) 1,397 3.5 -15.1°
Sets 01:24:54 0° 94° (E) 2,253 4.9 -14.8°
